ICEYE-X14 (51070 NORAD) Tracking and Keplerian Element Data

This shows tracking and keplerian element data for the satellite.

Feedback or suggestion? Click here.




ElementValue
Catalog51070
NameICEYE-X14
Epoch Orbit16976
Epoch Day35.16638824
Epoch Year2025
RAAN104.8415
Inclination97.365
Eccentricity0.0006293
Argument of Perigee60.7079
Mean Anonmoly299.4791
Mean Motion15.32964774
Decay Rate0.00028913
L11 51070U 22002CQ 25035.16638824 .00028913 00000+0 90757-3 0 9995
L22 51070 97.3650 104.8415 0006293 60.7079 299.4791 15.32964774169765



Live tracking and technical data element details for ICEYE-X14 (NORAD 51070). ICEYE-X14 can be tracked NOW for your location showing map with azimuth and elevation plus other details from your city location.







IsCatalogInMostPopularTable: catalog: 51070, numindb: 85
Update: records affected: 1



GetName: 51070 ICEYE-X14

Hit Count: updated at: Wed, 18 Jun 2025 06:00:45 GMT